Location: Strathcona Wilderness Centre
(53.5370°N, 113.0082°W)
Time: 17:01:42
(UTC-07:00)

Envisat - Visible Passes

Search period start: 24 November 2017 00:00
Search period end: 04 December 2017 00:00
Orbit: 764 x 766 km, 98.2° (Epoch: 24 November)

Date Brightness Start Highest point End Pass type
(mag) Time Alt. Az. Time Alt. Az. Time Alt. Az.
24 Nov 4.5 18:45:49 21° NNE 18:45:49 21° NNE 18:48:01 10° N visible
24 Nov 5.1 20:26:02 20° NNW 20:26:02 20° NNW 20:27:34 10° NNW visible
25 Nov 4.7 18:08:45 15° NE 18:08:45 15° NE 18:10:33 10° NNE visible
25 Nov 4.7 19:48:57 23° N 19:48:57 23° N 19:50:51 10° NNW visible
25 Nov 6.0 21:29:10 10° NW 21:29:10 10° NW 21:29:10 10° NW visible
26 Nov 4.5 19:11:53 22° N 19:11:53 22° N 19:13:54 10° N visible
26 Nov 5.5 20:52:05 15° NNW 20:52:05 15° NNW 20:53:02 10° NNW visible
27 Nov 4.6 18:34:48 18° NNE 18:34:48 18° NNE 18:36:43 10° N visible
27 Nov 5.1 20:15:00 20° NNW 20:15:00 20° NNW 20:16:29 10° NNW visible
28 Nov 4.8 17:57:43 13° NE 17:57:43 13° NE 17:59:04 10° NNE visible
28 Nov 4.7 19:37:55 22° N 19:37:55 22° N 19:39:41 10° N visible
28 Nov 5.9 21:18:07 11° NW 21:18:07 11° NW 21:18:17 10° NW visible
29 Nov 5.9 07:33:47 10° ENE 07:36:03 13° E 07:38:19 10° ESE visible
29 Nov 4.6 19:00:49 20° NNE 19:00:49 20° NNE 19:02:41 10° N visible
29 Nov 5.5 20:41:02 15° NNW 20:41:02 15° NNW 20:41:59 10° NNW visible
30 Nov 4.7 18:23:44 16° NNE 18:23:44 16° NNE 18:25:24 10° N visible
30 Nov 5.0 20:03:56 19° NNW 20:03:56 19° NNW 20:05:22 10° NNW visible
01 Dec 4.9 17:46:38 11° NE 17:46:38 11° NE 17:47:25 10° NNE visible
01 Dec 4.7 19:26:51 20° N 19:26:51 20° N 19:28:30 10° N visible
01 Dec 5.8 21:07:03 11° NNW 21:07:03 11° NNW 21:07:20 10° NNW visible
02 Dec 6.2 07:23:57 10° ENE 07:24:44 10° E 07:25:30 10° E visible
02 Dec 4.7 18:49:45 18° NNE 18:49:45 18° NNE 18:51:26 10° N visible
02 Dec 5.4 20:29:57 16° NNW 20:29:57 16° NNW 20:30:56 10° NNW visible
03 Dec 4.8 18:12:38 14° NNE 18:12:38 14° NNE 18:14:01 10° NNE visible
03 Dec 5.0 19:52:51 19° NNW 19:52:51 19° NNW 19:54:14 10° NNW visible
